Regional Weather Roundup
Issued by NWS

Home | Current Version | Previous Version | Graphics & Text | Print | Product List | Glossary On
Versions: 1 2 3 4 5 6 7 8 9 10 11 12 13 14 15 16 17 18 19 20 21 22 23 24 25 26 27 28 29 30 31 32 33 34 35 36 37 38 39 40 41 42 43 44 45 46 47 48 49 50
000
ASUS43 KMPX 161901
RWRMN
WEATHER ROUNDUP FOR MINNESOTA
NATIONAL WEATHER SERVICE TWIN CITIES/CHANHASSEN MN
100 PM CST MON JAN 16 2017


NOTE: "FAIR" INDICATES FEW OR NO CLOUDS BELOW 12,000 FEET WITH NO
SIGNIFICANT WEATHER AND/OR OBSTRUCTIONS TO VISIBILITY. N/A MEANS
CURRENT SKY AND/OR WEATHER CONDITIONS ARE NOT AVAILABLE.

MNZ060>063-068>070-162000-
   Twin Cities Metro

CITY           SKY/WX    TMP DP  RH WIND       PRES   REMARKS
TWIN CITIES    CLOUDY    28  18  66 NE6       30.10F WCI  22
ST PAUL        CLOUDY    28  20  71 CALM      30.12F
CRYSTAL        CLOUDY    29  20  69 E5        30.09F WCI  24
BLAINE         CLOUDY    30  21  69 E5        30.10F WCI  25
LAKEVILLE      CLOUDY    25  19  80 NE6       30.08F WCI  18
EDEN PRAIRIE   CLOUDY    29  21  72 NE6       30.08F HAZE    WCI  23
SOUTH ST PAUL  CLOUDY    28  19  68 CALM      30.10F
LAKE ELMO      FAIR      28  21  74 NE5       30.11F WCI  23
$$
MNZ001>005-007-008-013>017-022>024-027-028-162000-
   Northwest Minnesota

CITY           SKY/WX    TMP DP  RH WIND       PRES   REMARKS
BEMIDJI        SUNNY     26  19  73 CALM      30.03F
HALLOCK        SUNNY     12   7  79 SE8       30.03F WCI   1
ROSEAU         CLOUDY    14   9  79 CALM      30.03F
WARROAD        CLOUDY    23  12  63 W6        30.03F WCI  16
THIEF RVR FALL SUNNY     20  11  68 S9        30.04F WCI   9
CROOKSTON      CLOUDY    14   9  79 S8        30.06F WCI   3
FOSSTON        SUNNY     23  12  63 S8        30.05F WCI  14
DETROIT LAKES  CLOUDY    25  23  93 CALM      30.05F
MOORHEAD       CLOUDY    16   9  73 S5        30.08F WCI   9
PARK RAPIDS    CLOUDY    23  18  81 CALM      30.04F
MAHNOMEN       FAIR      19  15  81 S6        30.04F WCI  11
$$
MNZ006-009>011-018-025>026-162000-
   North Central Minnesota

CITY           SKY/WX    TMP DP  RH WIND       PRES   REMARKS
BAUDETTE       SUNNY     21  11  65 E3        30.02F
FLAG ISLAND    SUNNY     12   9  85 SE7       30.03F WCI   2
INTL FALLS     SUNNY     27  14  58 CALM      30.04F
WASKISH        SUNNY     25  18  74 CALM      30.04F
BIG FORK       SUNNY     30  19  64 CALM      30.04F
LONGVILLE      SUNNY     30  19  64 CALM      30.04F
GRAND RAPIDS   SUNNY     34  24  67 NW3       30.07F
CRANE LAKE     SUNNY     27  16  63 CALM      30.07F
ORR            SUNNY     28  16  59 CALM      30.02F
COOK           SUNNY     30  19  64 CALM      30.05F
WALKER         FAIR      29  19  67 CALM      30.03F
$$
MNZ012-019>021-037-162000-
   Northeast Minnesota

CITY           SKY/WX    TMP DP  RH WIND       PRES   REMARKS
DULUTH         CLOUDY    31  22  69 SW3       30.06F
ELY            SUNNY     32  18  55 W3        30.05F
HIBBING        SUNNY     24  16  71 E3        30.07F
EVELETH        SUNNY     26  18  73 CALM      30.08S
DULUTH HARBOR  CLOUDY    27  19  74 CALM      30.11F
TWO HARBORS    SUNNY     39  25  56 W5        30.05F
SILVER BAY     SUNNY     36  23  60 CALM      30.05F
GRAND MARAIS     N/A     35  26  69 W3        30.09F
G MARAIS ARPRT SUNNY     36  14  41 S3        30.04F
$$
MNZ029>031-032-039>041-046>048-054>057-064-162000-
   West Central Minnesota

CITY           SKY/WX    TMP DP  RH WIND       PRES   REMARKS
FERGUS FALLS   CLOUDY    21  16  79 CALM      30.11F
WHEATON        CLOUDY    25  19  80 N3        30.09F
MORRIS         CLOUDY    25  18  74 CALM      30.04F
ALEXANDRIA     CLOUDY    28  19  69 SE3       30.05F
ELBOW LAKE     FAIR      22  17  80 E3        30.07S HAZE
WADENA         CLOUDY    19  18  93 CALM      30.05F
GLENWOOD       CLOUDY    27  19  74 CALM      30.04F
APPLETON       CLOUDY    21  16  79 CALM      30.06F
ORTONVILLE     CLOUDY    23  16  74 CALM      30.04F
MADISON        CLOUDY    28  19  69 CALM      30.05F
WILLMAR        CLOUDY    28  25  86 CALM      30.07F
$$
MNZ033>034-036-042>043-049>051-058-059-162000-
   Central Minnesota

CITY           SKY/WX    TMP DP  RH WIND       PRES   REMARKS
ST CLOUD       CLOUDY    25  21  85 SE5       30.08F WCI  19
SAUK CENTRE    FAIR      22  18  85 CALM      30.06F
PAYNESVILLE    CLOUDY    29  23  76 SE6       30.07F WCI  23
AITKIN         CLOUDY    28  18  64 CALM      30.05F
PINE RIVER     CLOUDY    21  19  93 SE5       30.08F WCI  15
BRAINERD       CLOUDY    26  19  74 CALM      30.06F
STAPLES        CLOUDY    25  18  74 CALM      30.05F
LONG PRAIRIE   FAIR      23  19  86 CALM      30.07F
LITTLE FALLS   CLOUDY    25  21  86 CALM      30.08F
LITCHFIELD     CLOUDY    30  25  80 E5        30.08F WCI  25
BUFFALO        CLOUDY    31  23  72 NE3       30.09F
MAPLE LAKE     CLOUDY    31  27  84 CALM      30.09F
HUTCHINSON     CLOUDY    28  27  96 NE7       30.08F FOG     WCI  21
$$
MNZ037-044-045-052-053-162000-
   East Central Minnesota

CITY           SKY/WX    TMP DP  RH WIND       PRES   REMARKS
PRINCETON      CLOUDY    28  19  69 CALM      30.10F
MORA           CLOUDY    25  18  74 CALM      30.13F
CAMBRIDGE      CLOUDY    30  18  59 CALM      30.09F
RUSH CITY      CLOUDY    30  18  59 CALM      30.11F
MOOSE LAKE     CLOUDY    30  19  64 S7        30.07F WCI  23
HINCKLEY       FAIR      28  19  69 S3        30.10F
CLOQUET        CLOUDY    28  18  64 S3        30.07F
MCGREGOR       CLOUDY    30  21  69 S3        30.07F
$$
MNZ071>073-080-081-089-090-097-098-162000-
   Southwest Minnesota

CITY           SKY/WX    TMP DP  RH WIND       PRES   REMARKS
MONTEVIDEO     CLOUDY    28  19  69 CALM      30.08F
GRANITE FALLS  CLOUDY    30  25  80 E3        30.07F
CANBY            N/A     30  23  75 CALM      30.05F
MARSHALL       CLOUDY    34  21  59 CALM      30.05F
REDWOOD FALLS  CLOUDY    29  23  78 SE3       30.05F
OLIVIA         CLOUDY    30  25  80 E5        30.05F WCI  25
PIPESTONE      CLOUDY    32  25  74 NE5       30.00F WCI  27
WINDOM         CLOUDY    30  28  93 NE7       30.02F FOG     WCI  23
WORTHINGTON    CLOUDY    29  27  92 NE12      30.00F FOG     WCI  19
JACKSON        FOG       28  28 100 NE10      30.01F VSB 1/4 WCI  19
TRACY          CLOUDY    31  24  76 CALM      30.03F
SLAYTON        CLOUDY    29  23  78 NE6       30.03F WCI  23
$$
MNZ065>067-074>077-082>085-091>093-162000-
   South Central Minnesota

CITY           SKY/WX    TMP DP  RH WIND       PRES   REMARKS
MANKATO        CLOUDY    31  26  82 NE7       30.05F WCI  24
NEW ULM        FOG       28  27  93 CALM      30.05F VSB 1
ST JAMES       CLOUDY    28  28 100 NE6       30.05F FOG     WCI  22
FAIRMONT       CLOUDY    30  28  92 NE8       30.02F FOG     WCI  22
GLENCOE        CLOUDY    29  28  96 NE3       30.07F FOG
FARIBAULT        N/A     30  23  74 N6        30.06F WCI  24
OWATONNA       CLOUDY    30  27  86 E6        30.04F WCI  24
WASECA         CLOUDY    32  28  86 NE6       30.06F WCI  26
ALBERT LEA     CLOUDY    34  30  86 E8        30.01F FOG     WCI  27
$$
MNZ078>079-086>088-094>096-162000-
   Southeast Minnesota

CITY           SKY/WX    TMP DP  RH WIND       PRES   REMARKS
ROCHESTER      CLOUDY    29  26  89 NE12      30.04F WCI  19
RED WING       CLOUDY    27  18  69 SE3       30.10F
STANTON        CLOUDY    28  22  77 N6        30.07F WCI  21
DODGE CENTER   CLOUDY    28  27  93 CALM      30.03F
WINONA         CLOUDY    30  23  74 CALM      30.11F
AUSTIN         DRIZZLE   32  28  86 E9        30.02F WCI  24
PRESTON        MIX PCPN  29  27  93 NE7       30.04F WCI  22
$$
ABBREVIATIONS USED IN REMARKS
   TC - TEMPERATURES IN CELSIUS
  WCI - WIND CHILL INDEX
   HX - HEAT INDEX
  VSB - VISIBILITY
$$



USA.gov is the U.S. government's official web portal to all federal, state and local government web resources and services.